User: anonymous   Login
Location: Unspecified
(0.0000°N, 0.0000°E)
Time: 19:09:01
(UTC+00:00)
Language:

STARLINK-33739 - Orbit

View from above orbital plane
View from above orbital plane
View from above satellite
View from above satellite

Ground track
Ground track

The orbit is defined by the following mean orbital elements,

1 63572U          26145.56530662 +.00000000 +00000-0 +65226-3 0 00001
2 63572  42.9977 247.8832 0001154 277.9000  82.1720 15.27597263    00
Epoch (UTC): 25 May 2026 13:34:02
Eccentricity: 0.0001154
inclination: 42.9977°
perigee height: 482 km
apogee height: 484 km
right ascension of ascending node: 247.8832°
argument of perigee: 277.9000°
revolutions per day: 15.27597263
mean anomaly at epoch: 82.1720°

The dashed part of the orbit path shows where the satellite is in the earth's shadow,  

DLR